Location: Prague
(50.0830°N, 14.4670°E)
Time: 00:56:06
(UTC+01:00)

ITUPSAT 1 - Pass Details

Date: 06 December 2021
Orbit: 700 x 713 km, 98.6° (Epoch: 25 January)

Event Time Altitude Azimuth Distance (km) Brightness Sun altitude
Rises 06:31:49 0° 157° (SSE) 3,090 ? -11.2°
Reaches altitude 10° 06:34:04 10° 156° (SSE) 2,178 ? -10.9°
Maximum altitude 06:38:50 74° 72° (ENE) 744 ? -10.2°
Drops below altitude 10° 06:43:38 10° 348° (NNW) 2,201 ? -9.5°
Sets 06:45:55 0° 347° (NNW) 3,126 ? -9.1°
